This is the latest recevied weather packets stored in our database for station/object R2AKT-13. If no packets are shown the sender has not sent any weather packets the latest 10 day(s).
| Time | Temp. | Humidity | Pressure | Rain* | Wind** | Luminosity | Snow |
|---|---|---|---|---|---|---|---|
| 1777857459 | 12.78° C | 55% | 985.6 hPa | - | 0.45 m/s, 261° | - | - |
| 1777856889 | 12.78° C | 55% | 985.6 hPa | - | 0 m/s | - | - |
| 1777856329 | 12.78° C | 54% | 985.6 hPa | - | 0.45 m/s, 234° | - | - |
| 1777855759 | 13.33° C | 54% | 985.6 hPa | - | 0.45 m/s, 252° | - | - |
| 1777855199 | 13.33° C | 53% | 985.6 hPa | - | 0 m/s | - | - |
| 1777854714 | 13.33° C | 53% | 985.6 hPa | - | 0.89 m/s, 254° | - | - |
| 1777854154 | 13.33° C | 53% | 985.7 hPa | - | 0 m/s | - | - |
| 1777853554 | 13.33° C | 53% | 985.6 hPa | - | 0 m/s | - | - |
| 1777852964 | 13.33° C | 53% | 985.6 hPa | - | 0 m/s | - | - |
| 1777852409 | 13.89° C | 52% | 985.6 hPa | - | 0 m/s | - | - |
| 1777851849 | 13.89° C | 52% | 985.4 hPa | - | 0.45 m/s, 219° | - | - |
| 1777851309 | 13.89° C | 52% | 985.5 hPa | - | 0.45 m/s, 231° | - | - |
| 1777850774 | 13.89° C | 51% | 985.5 hPa | - | 0.45 m/s, 227° | - | - |
| 1777850269 | 14.44° C | 51% | 985.5 hPa | - | 0.45 m/s, 207° | - | - |
| 1777849709 | 14.44° C | 51% | 985.6 hPa | - | 0.89 m/s, 191° | - | - |
| 1777849224 | 14.44° C | 51% | 985.6 hPa | - | 0.89 m/s, 192° | - | - |
| 1777848724 | 14.44° C | 51% | 985.6 hPa | - | 0.89 m/s, 194° | - | - |
| 1777848204 | 14.44° C | 50% | 985.6 hPa | - | 1.79 m/s, 196° | - | - |
| 1777847664 | 14.44° C | 51% | 985.6 hPa | - | 1.34 m/s, 183° | - | - |
| 1777847074 | 14.44° C | 50% | 985.6 hPa | - | 1.34 m/s, 193° | - | - |
| 1777846559 | 15° C | 50% | 985.6 hPa | - | 1.34 m/s, 184° | - | - |
| 1777845964 | 15° C | 50% | 985.7 hPa | - | 1.34 m/s, 197° | - | - |
| 1777845384 | 15° C | 50% | 985.7 hPa | - | 1.34 m/s, 184° | - | - |
| 1777844849 | 15° C | 49% | 985.8 hPa | - | 1.34 m/s, 184° | - | - |
| 1777844364 | 15° C | 49% | 985.8 hPa | - | 0.89 m/s, 191° | - | - |
* Rain since midnight (hover to see other rain measurements)
** Current wind speed in m/s (hover to see current wind gust speed)